Terminal Aerodrome Forecast
Issued by NWS Tulsa, OK

Home | Current Version | Previous Version | Text Only | Print | Product List | Glossary On
Versions: 1 2 3 4 5 6 7 8 9 10 11 12 13 14 15 16 17 18 19 20
000
FTUS44 KTSA 292327
TAFTUL
TAF
KTUL 292327Z 3000/3024 24012KT P6SM BKN070
     FM300800 26014G21KT P6SM OVC015
     FM301800 29015G22KT P6SM OVC015=

USA.gov is the U.S. government's official web portal to all federal, state and local government web resources and services.